Year,Month,Day,Hour,Minute,Value (Times are PST for temperature in C)
2018,06,26,00,00,12.60
2018,06,26,00,01,12.60
2018,06,26,00,02,12.60
2018,06,26,00,03,12.60
2018,06,26,00,04,12.60
2018,06,26,00,05,12.60
2018,06,26,00,06,12.60
2018,06,26,00,07,12.50
2018,06,26,00,08,12.60
2018,06,26,00,09,12.60
2018,06,26,00,10,12.60
2018,06,26,00,11,12.60
2018,06,26,00,12,12.60
2018,06,26,00,13,12.60
2018,06,26,00,14,12.60
2018,06,26,00,15,12.60
2018,06,26,00,16,12.50
2018,06,26,00,17,12.50
2018,06,26,00,18,12.50
2018,06,26,00,19,12.50
2018,06,26,00,20,12.50
2018,06,26,00,21,12.50
2018,06,26,00,22,12.50
2018,06,26,00,23,12.50
2018,06,26,00,24,12.50
2018,06,26,00,25,12.50
2018,06,26,00,26,12.40
2018,06,26,00,27,12.40
2018,06,26,00,28,12.40
2018,06,26,00,29,12.50
2018,06,26,00,30,12.40
2018,06,26,00,31,12.50
2018,06,26,00,32,12.50
2018,06,26,00,33,12.50
2018,06,26,00,34,12.50
2018,06,26,00,35,12.40
2018,06,26,00,36,12.50
2018,06,26,00,37,12.40
2018,06,26,00,38,12.50
2018,06,26,00,39,12.50
2018,06,26,00,40,12.40
2018,06,26,00,41,12.50
2018,06,26,00,42,12.40
2018,06,26,00,43,12.50
2018,06,26,00,44,12.40
2018,06,26,00,45,12.50
2018,06,26,00,46,12.40
2018,06,26,00,47,12.40
2018,06,26,00,48,12.40
2018,06,26,00,49,12.40
2018,06,26,00,50,12.40
2018,06,26,00,51,12.40
2018,06,26,00,52,12.40
2018,06,26,00,53,12.40
2018,06,26,00,54,12.40
2018,06,26,00,55,12.40
2018,06,26,00,56,12.40
2018,06,26,00,57,12.40
2018,06,26,00,58,12.40
2018,06,26,00,59,12.40
2018,06,26,01,00,12.40
2018,06,26,01,01,12.40
2018,06,26,01,02,12.40
2018,06,26,01,03,12.40
2018,06,26,01,04,12.30
2018,06,26,01,05,12.30
2018,06,26,01,06,12.30
2018,06,26,01,07,12.30
2018,06,26,01,08,12.30
2018,06,26,01,09,12.30
2018,06,26,01,10,12.30
2018,06,26,01,11,12.30
2018,06,26,01,12,12.30
2018,06,26,01,13,12.30
2018,06,26,01,14,12.30
2018,06,26,01,15,12.30
2018,06,26,01,16,12.30
2018,06,26,01,17,12.30
2018,06,26,01,18,12.30
2018,06,26,01,19,12.30
2018,06,26,01,20,12.30
2018,06,26,01,21,12.30
2018,06,26,01,22,12.30
2018,06,26,01,23,12.30
2018,06,26,01,24,12.30
2018,06,26,01,25,12.30
2018,06,26,01,26,12.30
2018,06,26,01,27,12.30
2018,06,26,01,28,12.30
2018,06,26,01,29,12.30
2018,06,26,01,30,12.30
2018,06,26,01,31,12.30
2018,06,26,01,32,12.30
2018,06,26,01,33,12.30
2018,06,26,01,34,12.30
2018,06,26,01,35,12.30
2018,06,26,01,36,12.30
2018,06,26,01,37,12.30
2018,06,26,01,38,12.30
2018,06,26,01,39,12.20
2018,06,26,01,40,12.30
2018,06,26,01,41,12.20
2018,06,26,01,42,12.20
2018,06,26,01,43,12.20
2018,06,26,01,44,12.20
2018,06,26,01,45,12.20
2018,06,26,01,46,12.20
2018,06,26,01,47,12.20
2018,06,26,01,48,12.20
2018,06,26,01,49,12.20
2018,06,26,01,50,12.20
2018,06,26,01,51,12.20
2018,06,26,01,52,12.20
2018,06,26,01,53,12.20
2018,06,26,01,54,12.20
2018,06,26,01,55,12.20
2018,06,26,01,56,12.20
2018,06,26,01,57,12.20
2018,06,26,01,58,12.20
2018,06,26,01,59,12.20
2018,06,26,02,00,12.20
2018,06,26,02,01,12.20
2018,06,26,02,02,12.20
2018,06,26,02,03,12.20
2018,06,26,02,04,12.20
2018,06,26,02,05,12.20
2018,06,26,02,06,12.20
2018,06,26,02,07,12.20
2018,06,26,02,08,12.20
2018,06,26,02,09,12.20
2018,06,26,02,10,12.20
2018,06,26,02,11,12.20
2018,06,26,02,12,12.20
2018,06,26,02,13,12.20
2018,06,26,02,14,12.20
2018,06,26,02,15,12.20
2018,06,26,02,16,12.20
2018,06,26,02,17,12.20
2018,06,26,02,18,12.20
2018,06,26,02,19,12.20
2018,06,26,02,20,12.20
2018,06,26,02,21,12.20
2018,06,26,02,22,12.20
2018,06,26,02,23,12.20
2018,06,26,02,24,12.20
2018,06,26,02,25,12.20
2018,06,26,02,26,12.20
2018,06,26,02,27,12.20
2018,06,26,02,28,12.20
2018,06,26,02,29,12.20
2018,06,26,02,30,12.20
2018,06,26,02,31,12.20
2018,06,26,02,32,12.20
2018,06,26,02,33,12.20
2018,06,26,02,34,12.20
2018,06,26,02,35,12.20
2018,06,26,02,36,12.20
2018,06,26,02,37,12.20
2018,06,26,02,38,12.20
2018,06,26,02,39,12.20
2018,06,26,02,40,12.20
2018,06,26,02,41,12.20
2018,06,26,02,42,12.20
2018,06,26,02,43,12.20
2018,06,26,02,44,12.20
2018,06,26,02,45,12.20
2018,06,26,02,46,12.20
2018,06,26,02,47,12.20
2018,06,26,02,48,12.20
2018,06,26,02,49,12.20
2018,06,26,02,50,12.20
2018,06,26,02,51,12.20
2018,06,26,02,52,12.20
2018,06,26,02,53,12.20
2018,06,26,02,54,12.20
2018,06,26,02,55,12.20
2018,06,26,02,56,12.20
2018,06,26,02,57,12.20
2018,06,26,02,58,12.20
2018,06,26,02,59,12.20
2018,06,26,03,00,12.20
2018,06,26,03,01,12.20
2018,06,26,03,02,12.20
2018,06,26,03,03,12.20
2018,06,26,03,04,12.20
2018,06,26,03,05,12.20
2018,06,26,03,06,12.20
2018,06,26,03,07,12.20
2018,06,26,03,08,12.20
2018,06,26,03,09,12.20
2018,06,26,03,10,12.20
2018,06,26,03,11,12.20
2018,06,26,03,12,12.20
2018,06,26,03,13,12.20
2018,06,26,03,14,12.20
2018,06,26,03,15,12.20
2018,06,26,03,16,12.20
2018,06,26,03,17,12.20
2018,06,26,03,18,12.10
2018,06,26,03,19,12.10
2018,06,26,03,20,12.10
2018,06,26,03,21,12.10
2018,06,26,03,22,12.10
2018,06,26,03,23,12.10
2018,06,26,03,24,12.10
2018,06,26,03,25,12.10
2018,06,26,03,26,12.10
2018,06,26,03,27,12.10
2018,06,26,03,28,12.10
2018,06,26,03,29,12.10
2018,06,26,03,30,12.10
2018,06,26,03,31,12.10
2018,06,26,03,32,12.10
2018,06,26,03,33,12.10
2018,06,26,03,34,12.10
2018,06,26,03,35,12.10
2018,06,26,03,36,12.10
2018,06,26,03,37,12.10
2018,06,26,03,38,12.10
2018,06,26,03,39,12.10
2018,06,26,03,40,12.10
2018,06,26,03,41,12.10
2018,06,26,03,42,12.10
2018,06,26,03,43,12.10
2018,06,26,03,44,12.10
2018,06,26,03,45,12.10
2018,06,26,03,46,12.10
2018,06,26,03,47,12.10
2018,06,26,03,48,12.10
2018,06,26,03,49,12.10
2018,06,26,03,50,12.10
2018,06,26,03,51,12.10
2018,06,26,03,52,12.10
2018,06,26,03,53,12.00
2018,06,26,03,54,12.00
2018,06,26,03,55,12.00
2018,06,26,03,56,12.00
2018,06,26,03,57,12.00
2018,06,26,03,58,12.00
2018,06,26,03,59,12.00
2018,06,26,04,00,12.00
2018,06,26,04,01,12.00
2018,06,26,04,02,12.00
2018,06,26,04,03,12.00
2018,06,26,04,04,11.90
2018,06,26,04,05,11.90
2018,06,26,04,06,11.90
2018,06,26,04,07,11.90
2018,06,26,04,08,11.90
2018,06,26,04,09,11.90
2018,06,26,04,10,11.90
2018,06,26,04,11,11.90
2018,06,26,04,12,11.90
2018,06,26,04,13,11.90
2018,06,26,04,14,11.90
2018,06,26,04,15,11.90
2018,06,26,04,16,11.90
2018,06,26,04,17,11.90
2018,06,26,04,18,11.80
2018,06,26,04,19,11.90
2018,06,26,04,20,11.80
2018,06,26,04,21,11.80
2018,06,26,04,22,11.90
2018,06,26,04,23,11.90
2018,06,26,04,24,11.90
2018,06,26,04,25,11.90
2018,06,26,04,26,11.90
2018,06,26,04,27,11.80
2018,06,26,04,28,11.80
2018,06,26,04,29,11.80
2018,06,26,04,30,11.80
2018,06,26,04,31,11.80
2018,06,26,04,32,11.80
2018,06,26,04,33,11.80
2018,06,26,04,34,11.80
2018,06,26,04,35,11.80
2018,06,26,04,36,11.70
2018,06,26,04,37,11.70
2018,06,26,04,38,11.70
2018,06,26,04,39,11.70
2018,06,26,04,40,11.70
2018,06,26,04,41,11.60
2018,06,26,04,42,11.60
2018,06,26,04,43,11.60
2018,06,26,04,44,11.50
2018,06,26,04,45,11.50
2018,06,26,04,46,11.50
2018,06,26,04,47,11.40
2018,06,26,04,48,11.40
2018,06,26,04,49,11.40
2018,06,26,04,50,11.40
2018,06,26,04,51,11.40
2018,06,26,04,52,11.40
2018,06,26,04,53,11.30
2018,06,26,04,54,11.30
2018,06,26,04,55,11.30
2018,06,26,04,56,11.30
2018,06,26,04,57,11.30
2018,06,26,04,58,11.30
2018,06,26,04,59,11.20
2018,06,26,05,00,11.20
2018,06,26,05,01,11.20
2018,06,26,05,02,11.20
2018,06,26,05,03,11.20
2018,06,26,05,04,11.20
2018,06,26,05,05,11.20
2018,06,26,05,06,11.10
2018,06,26,05,07,11.10
2018,06,26,05,08,11.10
2018,06,26,05,09,11.10
2018,06,26,05,10,11.10
2018,06,26,05,11,11.10
2018,06,26,05,12,11.10
2018,06,26,05,13,11.00
2018,06,26,05,14,11.00
2018,06,26,05,15,11.00
2018,06,26,05,16,11.00
2018,06,26,05,17,10.90
2018,06,26,05,18,11.00
2018,06,26,05,19,10.90
2018,06,26,05,20,10.90
2018,06,26,05,21,10.90
2018,06,26,05,22,10.90
2018,06,26,05,23,10.80
2018,06,26,05,24,10.80
2018,06,26,05,25,10.80
2018,06,26,05,26,10.80
2018,06,26,05,27,10.80
2018,06,26,05,28,10.80
2018,06,26,05,29,10.70
2018,06,26,05,30,10.70
2018,06,26,05,31,10.70
2018,06,26,05,32,10.70
2018,06,26,05,33,10.70
2018,06,26,05,34,10.70
2018,06,26,05,35,10.70
2018,06,26,05,36,10.70
2018,06,26,05,37,10.70
2018,06,26,05,38,10.70
2018,06,26,05,39,10.60
2018,06,26,05,40,10.60
2018,06,26,05,41,10.70
2018,06,26,05,42,10.60
2018,06,26,05,43,10.70
2018,06,26,05,44,10.70
2018,06,26,05,45,10.70
2018,06,26,05,46,10.70
2018,06,26,05,47,10.70
2018,06,26,05,48,10.70
2018,06,26,05,49,10.70
2018,06,26,05,50,10.70
2018,06,26,05,51,10.70
2018,06,26,05,52,10.70
2018,06,26,05,53,10.70
2018,06,26,05,54,10.70
2018,06,26,05,55,10.70
2018,06,26,05,56,10.80
2018,06,26,05,57,10.80
2018,06,26,05,58,10.80
2018,06,26,05,59,10.80
2018,06,26,06,00,10.80
2018,06,26,06,01,10.80
2018,06,26,06,02,10.80
2018,06,26,06,03,10.80
2018,06,26,06,04,10.80
2018,06,26,06,05,10.80
2018,06,26,06,06,10.80
2018,06,26,06,07,10.80
2018,06,26,06,08,10.80
2018,06,26,06,09,10.80
2018,06,26,06,10,10.80
2018,06,26,06,11,10.80
2018,06,26,06,12,10.80
2018,06,26,06,13,10.80
2018,06,26,06,14,10.90
2018,06,26,06,15,10.90
2018,06,26,06,16,10.90
2018,06,26,06,17,11.00
2018,06,26,06,18,11.00
2018,06,26,06,19,11.10
2018,06,26,06,20,11.10
2018,06,26,06,21,11.10
2018,06,26,06,22,11.10
2018,06,26,06,23,11.10
2018,06,26,06,24,11.10
2018,06,26,06,25,11.10
2018,06,26,06,26,11.10
2018,06,26,06,27,11.10
2018,06,26,06,28,11.20
2018,06,26,06,29,11.20
2018,06,26,06,30,11.20
2018,06,26,06,31,11.20
2018,06,26,06,32,11.30
2018,06,26,06,33,11.30
2018,06,26,06,34,11.30
2018,06,26,06,35,11.30
2018,06,26,06,36,11.40
2018,06,26,06,37,11.40
2018,06,26,06,38,11.40
2018,06,26,06,39,11.40
2018,06,26,06,40,11.40
2018,06,26,06,41,11.40
2018,06,26,06,42,11.40
2018,06,26,06,43,11.50
2018,06,26,06,44,11.40
2018,06,26,06,45,11.50
2018,06,26,06,46,11.50
2018,06,26,06,47,11.50
2018,06,26,06,48,11.50
2018,06,26,06,49,11.60
2018,06,26,06,50,11.60
2018,06,26,06,51,11.60
2018,06,26,06,52,11.60
2018,06,26,06,53,11.60
2018,06,26,06,54,11.60
2018,06,26,06,55,11.70
2018,06,26,06,56,11.70
2018,06,26,06,57,11.70
2018,06,26,06,58,11.70
2018,06,26,06,59,11.70
2018,06,26,07,00,11.70
2018,06,26,07,01,11.70
2018,06,26,07,02,11.70
2018,06,26,07,03,11.70
2018,06,26,07,04,11.80
2018,06,26,07,05,11.80
2018,06,26,07,06,11.80
2018,06,26,07,07,11.80
2018,06,26,07,08,11.90
2018,06,26,07,09,11.90
2018,06,26,07,10,11.90
2018,06,26,07,11,11.90
2018,06,26,07,12,11.90
2018,06,26,07,13,11.90
2018,06,26,07,14,11.90
2018,06,26,07,15,12.00
2018,06,26,07,16,12.00
2018,06,26,07,17,12.00
2018,06,26,07,18,12.00
2018,06,26,07,19,12.00
2018,06,26,07,20,12.00
2018,06,26,07,21,12.10
2018,06,26,07,22,12.10
2018,06,26,07,23,12.10
2018,06,26,07,24,12.10
2018,06,26,07,25,12.10
2018,06,26,07,26,12.10
2018,06,26,07,27,12.10
2018,06,26,07,28,12.20
2018,06,26,07,29,12.20
2018,06,26,07,30,12.20
2018,06,26,07,31,12.20
2018,06,26,07,32,12.20
2018,06,26,07,33,12.30
2018,06,26,07,34,12.30
2018,06,26,07,35,12.30
2018,06,26,07,36,12.30
2018,06,26,07,37,12.30
2018,06,26,07,38,12.40
2018,06,26,07,39,12.40
2018,06,26,07,40,12.40
2018,06,26,07,41,12.50
2018,06,26,07,42,12.50
2018,06,26,07,43,12.60
2018,06,26,07,44,12.60
2018,06,26,07,45,12.60
2018,06,26,07,46,12.70
2018,06,26,07,47,12.70
2018,06,26,07,48,12.70
2018,06,26,07,49,12.70
2018,06,26,07,50,12.80
2018,06,26,07,51,12.80
2018,06,26,07,52,12.80
2018,06,26,07,53,12.90
2018,06,26,07,54,12.90
2018,06,26,07,55,12.90
2018,06,26,07,56,12.90
2018,06,26,07,57,12.90
2018,06,26,07,58,12.90
2018,06,26,07,59,12.90
2018,06,26,08,00,12.90
2018,06,26,08,01,12.90
2018,06,26,08,02,13.00
2018,06,26,08,03,13.00
2018,06,26,08,04,13.10
2018,06,26,08,05,13.20
2018,06,26,08,06,13.30
2018,06,26,08,07,13.30
2018,06,26,08,08,13.50
2018,06,26,08,09,13.60
2018,06,26,08,10,13.70
2018,06,26,08,11,13.80
2018,06,26,08,12,13.90
2018,06,26,08,13,14.00
2018,06,26,08,14,14.10
2018,06,26,08,15,14.10
2018,06,26,08,16,14.20
2018,06,26,08,17,14.20
2018,06,26,08,18,14.20
2018,06,26,08,19,14.30
2018,06,26,08,20,14.30
2018,06,26,08,21,14.30
2018,06,26,08,22,14.40
2018,06,26,08,23,14.40
2018,06,26,08,24,14.50
2018,06,26,08,25,14.60
2018,06,26,08,26,14.70
2018,06,26,08,27,14.80
2018,06,26,08,28,14.90
2018,06,26,08,29,15.10
2018,06,26,08,30,15.20
2018,06,26,08,31,15.30
2018,06,26,08,32,15.40
2018,06,26,08,33,15.60
2018,06,26,08,34,15.60
2018,06,26,08,35,15.70
2018,06,26,08,36,15.80
2018,06,26,08,37,15.80
2018,06,26,08,38,15.90
2018,06,26,08,39,16.00
2018,06,26,08,40,16.10
2018,06,26,08,41,16.10
2018,06,26,08,42,16.10
2018,06,26,08,43,16.10
2018,06,26,08,44,16.10
2018,06,26,08,45,16.20
2018,06,26,08,46,16.20
2018,06,26,08,47,16.30
2018,06,26,08,48,16.30
2018,06,26,08,49,16.40
2018,06,26,08,50,16.40
2018,06,26,08,51,16.50
2018,06,26,08,52,16.50
2018,06,26,08,53,16.60
2018,06,26,08,54,16.60
2018,06,26,08,55,16.60
2018,06,26,08,56,16.60
2018,06,26,08,57,16.60
2018,06,26,08,58,16.60
2018,06,26,08,59,16.70
2018,06,26,09,00,16.70
2018,06,26,09,01,16.70
2018,06,26,09,02,16.80
2018,06,26,09,03,16.80
2018,06,26,09,04,16.80
2018,06,26,09,05,16.80
2018,06,26,09,06,16.80
2018,06,26,09,07,16.80
2018,06,26,09,08,16.90
2018,06,26,09,09,16.90
2018,06,26,09,10,17.00
2018,06,26,09,11,17.10
2018,06,26,09,12,17.20
2018,06,26,09,13,17.10
2018,06,26,09,14,17.10
2018,06,26,09,15,17.10
2018,06,26,09,16,17.20
2018,06,26,09,17,17.20
2018,06,26,09,18,17.20
2018,06,26,09,19,17.30
2018,06,26,09,20,17.30
2018,06,26,09,21,17.30
2018,06,26,09,22,17.30
2018,06,26,09,23,17.30
2018,06,26,09,24,17.30
2018,06,26,09,25,17.30
2018,06,26,09,26,17.30
2018,06,26,09,27,17.30
2018,06,26,09,28,17.30
2018,06,26,09,29,17.30
2018,06,26,09,30,17.30
2018,06,26,09,31,17.40
2018,06,26,09,32,17.40
2018,06,26,09,33,17.40
2018,06,26,09,34,17.50
2018,06,26,09,35,17.60
2018,06,26,09,36,17.60
2018,06,26,09,37,17.70
2018,06,26,09,38,17.60
2018,06,26,09,39,17.60
2018,06,26,09,40,17.50
2018,06,26,09,41,17.50
2018,06,26,09,42,17.40
2018,06,26,09,43,17.30
2018,06,26,09,44,17.30
2018,06,26,09,45,17.30
2018,06,26,09,46,17.40
2018,06,26,09,47,17.30
2018,06,26,09,48,17.30
2018,06,26,09,49,17.20
2018,06,26,09,50,17.20
2018,06,26,09,51,17.20
2018,06,26,09,52,17.10
2018,06,26,09,53,17.10
2018,06,26,09,54,17.00
2018,06,26,09,55,17.00
2018,06,26,09,56,17.00
2018,06,26,09,57,16.90
2018,06,26,09,58,16.90
2018,06,26,09,59,16.70
2018,06,26,10,00,16.60
2018,06,26,10,01,16.60
2018,06,26,10,02,16.60
2018,06,26,10,03,16.60
2018,06,26,10,04,16.60
2018,06,26,10,05,16.50
2018,06,26,10,06,16.40
2018,06,26,10,07,16.40
2018,06,26,10,08,16.30
2018,06,26,10,09,16.30
2018,06,26,10,10,16.30
2018,06,26,10,11,16.20
2018,06,26,10,12,16.20
2018,06,26,10,13,16.30
2018,06,26,10,14,16.30
2018,06,26,10,15,16.30
2018,06,26,10,16,16.30
2018,06,26,10,17,16.30
2018,06,26,10,18,16.40
2018,06,26,10,19,16.50
2018,06,26,10,20,16.60
2018,06,26,10,21,16.60
2018,06,26,10,22,16.60
2018,06,26,10,23,16.50
2018,06,26,10,24,16.50
2018,06,26,10,25,16.50
2018,06,26,10,26,16.60
2018,06,26,10,27,16.60
2018,06,26,10,28,16.70
2018,06,26,10,29,16.70
2018,06,26,10,30,16.60
2018,06,26,10,31,16.50
2018,06,26,10,32,16.40
2018,06,26,10,33,16.30
2018,06,26,10,34,16.20
2018,06,26,10,35,16.20
2018,06,26,10,36,16.20
2018,06,26,10,37,16.30
2018,06,26,10,38,16.30
2018,06,26,10,39,16.40
2018,06,26,10,40,16.40
2018,06,26,10,41,16.30
2018,06,26,10,42,16.30
2018,06,26,10,43,16.30
2018,06,26,10,44,16.40
2018,06,26,10,45,16.40
2018,06,26,10,46,16.40
2018,06,26,10,47,16.40
2018,06,26,10,48,16.40
2018,06,26,10,49,16.40
2018,06,26,10,50,16.50
2018,06,26,10,51,16.50
2018,06,26,10,52,16.60
2018,06,26,10,53,16.70
2018,06,26,10,54,16.70
2018,06,26,10,55,16.70
2018,06,26,10,56,16.70
2018,06,26,10,57,16.70
2018,06,26,10,58,16.50
2018,06,26,10,59,16.40
2018,06,26,11,00,16.30
2018,06,26,11,01,16.30
2018,06,26,11,02,16.30
2018,06,26,11,03,16.40
2018,06,26,11,04,16.40
2018,06,26,11,05,16.50
2018,06,26,11,06,16.50
2018,06,26,11,07,16.50
2018,06,26,11,08,16.60
2018,06,26,11,09,16.70
2018,06,26,11,10,16.80
2018,06,26,11,11,17.00
2018,06,26,11,12,17.10
2018,06,26,11,13,17.10
2018,06,26,11,14,17.20
2018,06,26,11,15,17.20
2018,06,26,11,16,17.20
2018,06,26,11,17,17.10
2018,06,26,11,18,17.20
2018,06,26,11,19,17.20
2018,06,26,11,20,17.30
2018,06,26,11,21,17.40
2018,06,26,11,22,17.40
2018,06,26,11,23,17.40
2018,06,26,11,24,17.40
2018,06,26,11,25,17.40
2018,06,26,11,26,17.20
2018,06,26,11,27,17.10
2018,06,26,11,28,17.10
2018,06,26,11,29,17.10
2018,06,26,11,30,17.10
2018,06,26,11,31,17.10
2018,06,26,11,32,17.20
2018,06,26,11,33,17.20
2018,06,26,11,34,17.20
2018,06,26,11,35,17.20
2018,06,26,11,36,17.20
2018,06,26,11,37,17.20
2018,06,26,11,38,17.10
2018,06,26,11,39,17.00
2018,06,26,11,40,17.00
2018,06,26,11,41,16.90
2018,06,26,11,42,16.80
2018,06,26,11,43,16.70
2018,06,26,11,44,16.70
2018,06,26,11,45,16.70
2018,06,26,11,46,16.70
2018,06,26,11,47,16.70
2018,06,26,11,48,16.70
2018,06,26,11,49,16.70
2018,06,26,11,50,16.70
2018,06,26,11,51,16.70
2018,06,26,11,52,16.70
2018,06,26,11,53,16.60
2018,06,26,11,54,16.50
2018,06,26,11,55,16.40
2018,06,26,11,56,16.40
2018,06,26,11,57,16.30
2018,06,26,11,58,16.20
2018,06,26,11,59,16.20
2018,06,26,12,00,16.20
2018,06,26,12,01,16.20
2018,06,26,12,02,16.20
2018,06,26,12,03,16.30
2018,06,26,12,04,16.30
2018,06,26,12,05,16.40
2018,06,26,12,06,16.50
2018,06,26,12,07,16.60
2018,06,26,12,08,16.70
2018,06,26,12,09,16.80
2018,06,26,12,10,17.00
2018,06,26,12,11,17.10
2018,06,26,12,12,17.10
2018,06,26,12,13,17.10
2018,06,26,12,14,17.10
2018,06,26,12,15,17.20
2018,06,26,12,16,17.30
2018,06,26,12,17,17.40
2018,06,26,12,18,17.30
2018,06,26,12,19,17.40
2018,06,26,12,20,17.20
2018,06,26,12,21,17.20
2018,06,26,12,22,17.30
2018,06,26,12,23,17.30
2018,06,26,12,24,17.30
2018,06,26,12,25,17.30
2018,06,26,12,26,17.20
2018,06,26,12,27,17.20
2018,06,26,12,28,17.10
2018,06,26,12,29,17.10
2018,06,26,12,30,17.10
2018,06,26,12,31,17.00
2018,06,26,12,32,17.00
2018,06,26,12,33,17.10
2018,06,26,12,34,17.20
2018,06,26,12,35,17.30
2018,06,26,12,36,17.40
2018,06,26,12,37,17.50
2018,06,26,12,38,17.60
2018,06,26,12,39,17.50
2018,06,26,12,40,17.50
2018,06,26,12,41,17.50
2018,06,26,12,42,17.50
2018,06,26,12,43,17.50
2018,06,26,12,44,17.50
2018,06,26,12,45,17.40
2018,06,26,12,46,17.40
2018,06,26,12,47,17.40
2018,06,26,12,48,17.60
2018,06,26,12,49,17.70
2018,06,26,12,50,17.70
2018,06,26,12,51,17.70
2018,06,26,12,52,17.60
2018,06,26,12,53,17.60
2018,06,26,12,54,17.60
2018,06,26,12,55,17.60
2018,06,26,12,56,17.60
2018,06,26,12,57,17.70
2018,06,26,12,58,17.70
2018,06,26,12,59,17.90
2018,06,26,13,00,17.90
2018,06,26,13,01,17.90
2018,06,26,13,02,17.80
2018,06,26,13,03,17.80
2018,06,26,13,04,17.80
2018,06,26,13,05,17.80
2018,06,26,13,06,17.80
2018,06,26,13,07,17.80
2018,06,26,13,08,17.70
2018,06,26,13,09,17.80
2018,06,26,13,10,17.80
2018,06,26,13,11,17.80
2018,06,26,13,12,17.80
2018,06,26,13,13,17.80
2018,06,26,13,14,17.80
2018,06,26,13,15,17.80
2018,06,26,13,16,17.80
2018,06,26,13,17,17.80
2018,06,26,13,18,17.90
2018,06,26,13,19,18.10
2018,06,26,13,20,18.30
2018,06,26,13,21,18.50
2018,06,26,13,22,18.70
2018,06,26,13,23,18.80
2018,06,26,13,24,18.70
2018,06,26,13,25,18.70
2018,06,26,13,26,18.60
2018,06,26,13,27,18.60
2018,06,26,13,28,18.60
2018,06,26,13,29,18.60
2018,06,26,13,30,18.60
2018,06,26,13,31,18.70
2018,06,26,13,32,18.70
2018,06,26,13,33,18.80
2018,06,26,13,34,18.80
2018,06,26,13,35,18.80
2018,06,26,13,36,18.70
2018,06,26,13,37,18.80
2018,06,26,13,38,18.80
2018,06,26,13,39,18.80
2018,06,26,13,40,18.80
2018,06,26,13,41,18.60
2018,06,26,13,42,18.60
2018,06,26,13,43,18.50
2018,06,26,13,44,18.40
2018,06,26,13,45,18.40
2018,06,26,13,46,18.30
2018,06,26,13,47,18.40
2018,06,26,13,48,18.40
2018,06,26,13,49,18.50
2018,06,26,13,50,18.60
2018,06,26,13,51,18.60
2018,06,26,13,52,18.60
2018,06,26,13,53,18.60
2018,06,26,13,54,18.60
2018,06,26,13,55,18.60
2018,06,26,13,56,18.60
2018,06,26,13,57,18.60
2018,06,26,13,58,18.60
2018,06,26,13,59,18.60
2018,06,26,14,00,18.70
2018,06,26,14,01,18.80
2018,06,26,14,02,19.00
2018,06,26,14,03,19.10
2018,06,26,14,04,19.20
2018,06,26,14,05,19.30
2018,06,26,14,06,19.40
2018,06,26,14,07,19.40
2018,06,26,14,08,19.40
2018,06,26,14,09,19.30
2018,06,26,14,10,19.30
2018,06,26,14,11,19.30
2018,06,26,14,12,19.30
2018,06,26,14,13,19.30
2018,06,26,14,14,19.20
2018,06,26,14,15,19.10
2018,06,26,14,16,19.10
2018,06,26,14,17,19.10
2018,06,26,14,18,19.10
2018,06,26,14,19,19.20
2018,06,26,14,20,19.20
2018,06,26,14,21,19.10
2018,06,26,14,22,19.00
2018,06,26,14,23,19.00
2018,06,26,14,24,18.90
2018,06,26,14,25,19.00
2018,06,26,14,26,19.00
2018,06,26,14,27,19.10
2018,06,26,14,28,19.20
2018,06,26,14,29,19.30
2018,06,26,14,30,19.30
2018,06,26,14,31,19.10
2018,06,26,14,32,19.10
2018,06,26,14,33,19.10
2018,06,26,14,34,19.20
2018,06,26,14,35,19.20
2018,06,26,14,36,19.20
2018,06,26,14,37,19.10
2018,06,26,14,38,19.10
2018,06,26,14,39,19.00
2018,06,26,14,40,19.00
2018,06,26,14,41,19.00
2018,06,26,14,42,19.00
2018,06,26,14,43,19.00
2018,06,26,14,44,19.10
2018,06,26,14,45,19.10
2018,06,26,14,46,19.10
2018,06,26,14,47,19.10
2018,06,26,14,48,19.00
2018,06,26,14,49,19.00
2018,06,26,14,50,19.10
2018,06,26,14,51,19.00
2018,06,26,14,52,19.00
2018,06,26,14,53,19.00
2018,06,26,14,54,19.00
2018,06,26,14,55,19.10
2018,06,26,14,56,19.20
2018,06,26,14,57,19.20
2018,06,26,14,58,19.30
2018,06,26,14,59,19.40
2018,06,26,15,00,19.60
2018,06,26,15,01,19.60
2018,06,26,15,02,19.70
2018,06,26,15,03,19.80
2018,06,26,15,04,19.90
2018,06,26,15,05,20.10
2018,06,26,15,06,20.10
2018,06,26,15,07,20.10
2018,06,26,15,08,20.10
2018,06,26,15,09,20.20
2018,06,26,15,10,20.10
2018,06,26,15,11,20.10
2018,06,26,15,12,20.20
2018,06,26,15,13,20.30
2018,06,26,15,14,20.50
2018,06,26,15,15,20.60
2018,06,26,15,16,20.60
2018,06,26,15,17,20.50
2018,06,26,15,18,20.40
2018,06,26,15,19,20.40
2018,06,26,15,20,20.30
2018,06,26,15,21,20.30
2018,06,26,15,22,20.30
2018,06,26,15,23,20.30
2018,06,26,15,24,20.30
2018,06,26,15,25,20.30
2018,06,26,15,26,20.30
2018,06,26,15,27,20.30
2018,06,26,15,28,20.20
2018,06,26,15,29,20.20
2018,06,26,15,30,20.10
2018,06,26,15,31,20.10
2018,06,26,15,32,20.10
2018,06,26,15,33,20.00
2018,06,26,15,34,20.00
2018,06,26,15,35,20.00
2018,06,26,15,36,19.90
2018,06,26,15,37,19.90
2018,06,26,15,38,19.90
2018,06,26,15,39,20.00
2018,06,26,15,40,20.00
2018,06,26,15,41,20.10
2018,06,26,15,42,20.10
2018,06,26,15,43,20.10
2018,06,26,15,44,20.20
2018,06,26,15,45,20.30
2018,06,26,15,46,20.40
2018,06,26,15,47,20.50
2018,06,26,15,48,20.60
2018,06,26,15,49,20.50
2018,06,26,15,50,20.40
2018,06,26,15,51,20.40
2018,06,26,15,52,20.30
2018,06,26,15,53,20.30
2018,06,26,15,54,20.20
2018,06,26,15,55,20.10
2018,06,26,15,56,20.00
2018,06,26,15,57,20.00
2018,06,26,15,58,20.00
2018,06,26,15,59,19.90
2018,06,26,16,00,19.90
2018,06,26,16,01,19.90
2018,06,26,16,02,19.80
2018,06,26,16,03,19.80
2018,06,26,16,04,19.80
2018,06,26,16,05,19.80
2018,06,26,16,06,19.90
2018,06,26,16,07,19.90
2018,06,26,16,08,19.90
2018,06,26,16,09,19.90
2018,06,26,16,10,20.00
2018,06,26,16,11,20.10
2018,06,26,16,12,20.20
2018,06,26,16,13,20.30
2018,06,26,16,14,20.30
2018,06,26,16,15,20.30
2018,06,26,16,16,20.30
2018,06,26,16,17,20.20
2018,06,26,16,18,20.20
2018,06,26,16,19,20.20
2018,06,26,16,20,20.20
2018,06,26,16,21,20.20
2018,06,26,16,22,20.10
2018,06,26,16,23,20.10
2018,06,26,16,24,20.00
2018,06,26,16,25,20.00
2018,06,26,16,26,20.10
2018,06,26,16,27,20.10
2018,06,26,16,28,20.20
2018,06,26,16,29,20.20
2018,06,26,16,30,20.10
2018,06,26,16,31,20.10
2018,06,26,16,32,20.10
2018,06,26,16,33,20.10
2018,06,26,16,34,20.00
2018,06,26,16,35,20.00
2018,06,26,16,36,20.00
2018,06,26,16,37,20.00
2018,06,26,16,38,20.00
2018,06,26,16,39,20.10
2018,06,26,16,40,20.10
2018,06,26,16,41,20.00
2018,06,26,16,42,20.00
2018,06,26,16,43,20.00
2018,06,26,16,44,19.90
2018,06,26,16,45,19.90
2018,06,26,16,46,19.90
2018,06,26,16,47,19.90
2018,06,26,16,48,19.90
2018,06,26,16,49,20.00
2018,06,26,16,50,20.00
2018,06,26,16,51,20.00
2018,06,26,16,52,19.90
2018,06,26,16,53,19.90
2018,06,26,16,54,19.90
2018,06,26,16,55,19.80
2018,06,26,16,56,19.80
2018,06,26,16,57,19.80
2018,06,26,16,58,19.80
2018,06,26,16,59,19.80
2018,06,26,17,00,19.80
2018,06,26,17,01,19.80
2018,06,26,17,02,19.80
2018,06,26,17,03,19.80
2018,06,26,17,04,19.80
2018,06,26,17,05,19.80
2018,06,26,17,06,19.70
2018,06,26,17,07,19.70
2018,06,26,17,08,19.70
2018,06,26,17,09,19.70
2018,06,26,17,10,19.70
2018,06,26,17,11,19.70
2018,06,26,17,12,19.70
2018,06,26,17,13,19.70
2018,06,26,17,14,19.70
2018,06,26,17,15,19.70
2018,06,26,17,16,19.70
2018,06,26,17,17,19.60
2018,06,26,17,18,19.60
2018,06,26,17,19,19.60